Regional Weather Roundup
Issued by NWS

Home | Current Version | Previous Version | Graphics & Text | Print | Product List | Glossary On
Versions: 1 2 3 4 5 6 7 8 9 10 11 12 13 14 15 16 17 18 19 20 21 22 23 24 25 26 27 28 29 30 31 32 33 34 35 36 37 38 39 40 41 42 43 44 45 46 47 48 49 50
000
ASUS43 KOAX 011502
RWRNE

WEATHER ROUNDUP FOR NEBRASKA
NATIONAL WEATHER SERVICE OMAHA NE
1000 AM CDT SAT AUG 01 2015

NOTES: SATELLITE DATA IS BEING USED TO AUGMENT CLOUD COVER ABOVE
       12000 FEET.
       "FAIR" INDICATES FEW OR NO CLOUDS BELOW 12,000 FEET WITH NO
       SIGNIFICANT WEATHER AND/OR OBSTRUCTIONS TO VISIBILITY.

  * THESE STATIONS DO NOT REPORT WEATHER SUCH AS RAIN...SNOW OR FOG.

NEZ001>004-019>022-054>056-011600-
NEBRASKA PANHANDLE

CITY           SKY/WX    TMP DP  RH WIND       PRES   REMARKS
SCOTTSBLUFF    SUNNY     78  58  49 W5        30.09F
ALLIANCE       SUNNY     79  63  57 VRB7      30.08S
CHADRON        SUNNY     78  54  43 E3        30.04F
KIMBALL        SUNNY     78  59  51 SW15      30.14S
SIDNEY         SUNNY     80  61  52 SW16      30.13S
$$

NEZ057>060-069>072-079>082-011600-
SOUTHWEST NEBRASKA

CITY           SKY/WX    TMP DP  RH WIND       PRES   REMARKS
NORTH PLATTE   SUNNY     72  62  71 SE21G29   30.14R
IMPERIAL       SUNNY     77  62  59 SW8       30.10F
LEXINGTON      SUNNY     74  58  57 E15G24    30.13F
MCCOOK         SUNNY     77  60  55 E21G28    30.13R
$$

NEZ005>010-023>029-035>040-094-011600-
NORTH CENTRAL NEBRASKA

CITY           SKY/WX    TMP DP  RH WIND       PRES   REMARKS
VALENTINE      RAIN      63  61  93 N13       30.18R
BROKEN BOW     SUNNY     73  60  63 SE10G22   30.14F
O`NEILL        CLOUDY    71  59  66 SW10      30.08F
ORD            CLOUDY    66  60  81 E8        30.12F
$$

NEZ041-046>049-061>064-073>077-083>087-011600-
SOUTH CENTRAL NEBRASKA

CITY           SKY/WX    TMP DP  RH WIND       PRES   REMARKS
GRAND ISLAND   PTSUNNY   67  59  75 E12G23    30.11F
AURORA         PTSUNNY   67  61  81 E14G20    30.10F
HASTINGS       MOSUNNY   73  61  65 NE10G23   30.12F
KEARNEY *      MOSUNNY   73  57  56 E13       30.12F
$$

NEZ011>018-030>034-042>045-011600-
NORTHEAST NEBRASKA

CITY           SKY/WX    TMP DP  RH WIND       PRES   REMARKS
NORFOLK        CLOUDY    71  63  75 SW5       30.08R
BLAIR          LGT RAIN  69  63  80 W12G21    30.05F
COLUMBUS *     CLOUDY    70  59  68 SW9       30.06F
TEKAMAH        CLOUDY    70  66  87 E3        30.04F
$$

NEZ050>053-065>068-078-088>093-011600-
SOUTHEAST NEBRASKA

CITY           SKY/WX    TMP DP  RH WIND       PRES   REMARKS
LINCOLN        CLOUDY    73  60  63 NW17      30.06F
OMAHA EPPLEY   CLOUDY    73  63  70 SW10      30.05F
FALLS CITY     PTSUNNY   80  73  79 W6        30.05S
$$

NEZ044-045-051>053-067-011600-
OMAHA AREA

CITY           SKY/WX    TMP DP  RH WIND       PRES   REMARKS
OMAHA EPPLEY   CLOUDY    73  63  70 SW10      30.05F
BLAIR          LGT RAIN  69  63  80 W12G21    30.05F
OFFUTT AFB     CLOUDY    71  70  98 S2        30.07F
$$



USA.gov is the U.S. government's official web portal to all federal, state and local government web resources and services.